Location: Aalsum
(53.3404°N, 6.0062°E)
Time: 10:30:15
(UTC+00:00)

DELTA 2 DEB (DPAF) - Pass Details

Date: 28 January 2023
Orbit: 625 x 629 km, 98.4° (Epoch: 19 March)

Event Time Altitude Azimuth Distance (km) Brightness Sun altitude
Rises 15:51:33 0° 31° (NNE) 2,927 6.9 1.6°
Reaches altitude 10° 15:55:09 10° 62° (ENE) 2,014 6.0 1.2°
Drops below altitude 10° 15:58:38 10° 110° (ESE) 2,009 6.3 0.7°
Enters shadow 17:07:31 -47° 7° (N) 10,131 10.1 -8.5°
Maximum altitude 17:33:53 82° 105° (ESE) 642 4.0 -12.3°
